sat.trackr.live / text

‹ back to catalog

HULIANWANG DIGUI-79

NORAD 65311 · 2025-187G

PAYLOAD ACTIVE UNKNOWN

§ Identity

Operator
Country
PRC
Launch date
2025-08-25
Launch site
WSC
Launch vehicle
Mass (kg)
RCS (m²)

External: N2YO · Heavens-Above · Gunter

§ Orbital elements

Epoch: 2026-05-25T03:58:37.953120Z

Period
108.33 min
Inclination
50.0047°
Eccentricity
0.0000624
Mean motion
13.29318807 rev/d
Perigee alt
1,148.9 km
Apogee alt
1,149.8 km
Semi-major
7,527.5 km
B*
6.8428e-5
RAAN
288.7089°
Arg perigee
101.1265°
Mean anomaly
258.9677°
Rev number
3,663

§ Raw data

HULIANWANG DIGUI-791 65311U 25187G   26145.16571705 -.00000092  00000+0  68428-4 0  99922 65311  50.0047 288.7089 0000624 101.1265 258.9677 13.29318807 36638

JSON: /api/v1/satellites/65311 · /tle

For live sub-satellite position, see the globe view (requires WebGL).

§ Visibility from observer

Set your observer location to see the next 7 days of passes ≥ 10°. The values pass through the URL so the page stays shareable.

No JS? Fill the form by hand. The geolocation button needs JavaScript.